KK7MLS-13 Weather Reports


time (UTC)temp
C
wind
direction
speed
KPH
gust
KPH
rain 1hr
cm
rain 24hr
cm
rain mn
cm
humidity
%
barometer
mb
20260505171336 13 32 0.0 0.0 0.00 0.00 0.00 80 1016.9
20260505170832 13 281 0.0 0.0 0.00 0.00 0.00 81 1016.8
20260505170329 13 264 0.0 1.6 0.00 0.00 0.00 80 1016.9
20260505165825 13 313 0.0 0.0 0.00 0.00 0.00 82 1016.8
20260505165321 13 285 0.0 0.0 0.00 0.00 0.00 81 1016.8
20260505164816 13 304 0.0 0.0 0.00 0.00 0.00 81 1016.7
20260505164314 13 36 0.0 1.6 0.00 0.00 0.00 82 1016.7
20260505163812 13 302 0.0 1.6 0.00 0.00 0.00 82 1016.6
20260505163310 13 281 0.0 3.2 0.00 0.00 0.00 82 1016.6
20260505162808 13 288 1.6 1.6 0.00 0.00 0.00 81 1016.8
20260505162306 13 285 1.6 3.2 0.00 0.00 0.00 81 1016.8
20260505161801 13 272 0.0 1.6 0.00 0.00 0.00 81 1016.6
20260505161258 13 283 0.0 1.6 0.00 0.00 0.00 80 1016.5
20260505160756 13 298 0.0 1.6 0.00 0.00 0.00 80 1016.6
20260505160254 13 47 0.0 0.0 0.00 0.00 0.00 80 1016.4
20260505153232 13 42 0.0 0.0 0.00 0.00 0.00 82 1016.3
20260505152730 13 51 0.0 1.6 0.00 0.00 0.00 81 1016.5
20260505152226 12 27 0.0 1.6 0.00 0.00 0.00 82 1016.5
20260505151726 12 148 0.0 0.0 0.00 0.00 0.00 83 1016.5
20260505151224 12 209 0.0 1.6 0.00 0.00 0.00 83 1016.5
20260505150720 12 268 0.0 1.6 0.00 0.00 0.00 84 1016.4
20260505150217 12 214 0.0 1.6 0.00 0.00 0.00 84 1016.4
20260505140645 11 250 0.0 0.0 0.00 0.00 0.00 86 1015.9
20260505140142 11 335 0.0 0.0 0.00 0.00 0.00 87 1015.7
20260505130106 11 229 0.0 0.0 0.00 0.00 0.00 87 1015.6
20260505124555 11 267 0.0 0.0 0.00 0.00 0.00 87 1015.4
20260505124051 11 158 0.0 0.0 0.00 0.00 0.00 87 1015.5
20260505123548 11 348 0.0 0.0 0.00 0.00 0.00 87 1015.3
20260505123044 11 346 0.0 0.0 0.00 0.00 0.00 87 1015.5
20260505122541 11 345 0.0 1.6 0.00 0.00 0.00 87 1015.4
20260505122038 11 330 0.0 0.0 0.00 0.00 0.00 87 1015.5
20260505121535 11 330 0.0 0.0 0.00 0.00 0.00 87 1015.5
20260505121032 11 322 0.0 1.6 0.00 0.00 0.00 87 1015.4
20260505120528 11 294 0.0 0.0 0.00 0.00 0.00 87 1015.3
20260505120023 11 291 0.0 0.0 0.00 0.00 0.00 87 1015.3
20260505115518 11 291 0.0 0.0 0.00 0.00 0.00 87 1015.2
20260505115016 11 231 0.0 0.0 0.00 0.00 0.00 87 1015.4
20260505114513 11 166 0.0 0.0 0.00 0.00 0.00 88 1015.3
20260505114009 11 291 0.0 0.0 0.00 0.00 0.00 88 1015.4
20260505113506 11 291 0.0 0.0 0.00 0.00 0.00 87 1015.2
20260505113002 11 231 0.0 0.0 0.00 0.00 0.00 88 1015.4
20260505112459 11 265 0.0 0.0 0.00 0.00 0.00 88 1015.3
20260505111956 11 322 0.0 0.0 0.00 0.00 0.00 88 1015.4
20260505111456 11 268 0.0 0.0 0.00 0.00 0.00 88 1015.2
20260505110953 11 277 0.0 0.0 0.00 0.00 0.00 88 1015.2
20260505110449 11 306 0.0 0.0 0.00 0.00 0.00 88 1015.0
20260505101920 11 272 0.0 0.0 0.00 0.00 0.00 90 1014.6
20260505101415 11 272 0.0 0.0 0.00 0.00 0.00 90 1014.7
20260505100911 10 335 0.0 0.0 0.00 0.00 0.00 90 1014.8
20260505100408 10 335 0.0 0.0 0.00 0.00 0.00 90 1014.6
20260505095903 10 335 0.0 0.0 0.00 0.00 0.00 91 1014.7
20260505095401 10 293 0.0 0.0 0.00 0.00 0.00 91 1014.7
20260505094857 10 286 0.0 1.6 0.00 0.00 0.00 91 1014.8
20260505094354 10 52 0.0 0.0 0.00 0.00 0.00 90 1014.7
20260505093849 10 52 0.0 0.0 0.00 0.00 0.00 90 1014.5
20260505093347 10 52 0.0 0.0 0.00 0.00 0.00 89 1014.5
20260505092844 10 52 0.0 0.0 0.00 0.00 0.00 89 1014.5
20260505092342 10 52 0.0 0.0 0.00 0.00 0.00 89 1014.6
20260505091839 11 52 0.0 0.0 0.00 0.00 0.00 88 1014.7
20260505091337 11 52 0.0 0.0 0.00 0.00 0.00 88 1014.4
20260505090835 11 26 0.0 0.0 0.00 0.00 0.00 87 1014.5
20260505090333 11 26 0.0 0.0 0.00 0.00 0.00 87 1014.5
20260505085830 11 69 0.0 0.0 0.00 0.00 0.00 87 1014.4
20260505085328 11 69 0.0 0.0 0.00 0.00 0.00 86 1014.3
20260505084825 11 349 0.0 0.0 0.00 0.00 0.00 86 1014.3
20260505084324 11 312 0.0 0.0 0.00 0.00 0.00 86 1014.4
20260505083820 11 53 0.0 0.0 0.00 0.00 0.00 85 1014.3
20260505083318 11 59 0.0 0.0 0.00 0.00 0.00 85 1014.4
20260505082814 11 274 0.0 0.0 0.00 0.00 0.00 85 1014.4
20260505082311 12 277 0.0 1.6 0.00 0.00 0.00 84 1014.4
20260505081807 12 295 0.0 1.6 0.00 0.00 0.00 84 1014.3
20260505081304 12 328 0.0 1.6 0.00 0.00 0.00 84 1014.3
20260505080801 12 348 0.0 0.0 0.00 0.00 0.00 85 1014.2
20260505080256 12 13 0.0 0.0 0.00 0.00 0.00 85 1014.2
20260505075752 12 62 0.0 0.0 0.00 0.00 0.00 85 1014.1
20260505075250 12 46 0.0 0.0 0.00 0.00 0.00 84 1014.1
20260505074747 12 46 0.0 0.0 0.00 0.00 0.00 84 1014.0
20260505074244 12 47 0.0 0.0 0.00 0.00 0.00 83 1014.0
20260505073741 12 58 0.0 0.0 0.00 0.00 0.00 82 1013.9
20260505073239 12 304 1.6 1.6 0.00 0.00 0.00 82 1013.6
20260505072735 12 311 0.0 1.6 0.00 0.00 0.00 82 1013.9
20260505072231 12 270 0.0 1.6 0.00 0.00 0.00 81 1013.6
20260505071727 12 281 0.0 4.8 0.00 0.00 0.00 80 1013.8
20260505071225 13 219 0.0 1.6 0.00 0.00 0.00 80 1013.6
20260505070722 13 11 0.0 3.2 0.00 0.00 0.00 80 1013.5
20260505070218 13 87 0.0 1.6 0.00 0.00 0.00 80 1013.6
20260505065714 13 96 0.0 0.0 0.00 0.00 0.00 80 1013.4
20260505065211 13 25 0.0 0.0 0.00 0.00 0.00 80 1013.4
20260505064708 13 282 0.0 1.6 0.00 0.00 0.00 80 1013.4
20260505064206 13 293 1.6 1.6 0.00 0.00 0.00 80 1013.4
20260505063703 13 26 0.0 0.0 0.00 0.00 0.00 80 1013.4
20260505063159 13 287 0.0 0.0 0.00 0.00 0.00 79 1013.3
20260505062655 13 281 1.6 1.6 0.00 0.00 0.00 79 1013.2
20260505062153 13 309 0.0 1.6 0.00 0.00 0.00 79 1012.9
20260505061650 13 330 0.0 0.0 0.00 0.00 0.00 79 1013.1
20260505061148 13 182 0.0 0.0 0.00 0.00 0.00 78 1013.1
20260505060645 13 75 0.0 1.6 0.00 0.00 0.00 78 1012.9
20260505060142 14 309 0.0 0.0 0.00 0.00 0.00 78 1013.0
20260505055637 14 279 0.0 0.0 0.00 0.00 0.00 78 1012.9
20260505055134 14 270 0.0 0.0 0.00 0.00 0.00 77 1013.0
20260505054632 15 270 0.0 0.0 0.00 0.00 0.00 77 1012.8
20260505054130 15 288 0.0 1.6 0.00 0.00 0.00 76 1012.8
20260505053627 15 210 0.0 1.6 0.00 0.00 0.00 76 1012.8
20260505053123 15 295 0.0 0.0 0.00 0.00 0.00 76 1012.8
20260505052620 15 282 0.0 0.0 0.00 0.00 0.00 75 1012.6
20260505052118 15 129 0.0 1.6 0.00 0.00 0.00 74 1012.6
20260505051614 16 249 0.0 0.0 0.00 0.00 0.00 74 1012.6
20260505051112 16 264 0.0 1.6 0.00 0.00 0.00 74 1012.5
20260505050610 16 24 0.0 0.0 0.00 0.00 0.00 73 1012.6
20260505050108 16 40 1.6 1.6 0.00 0.00 0.00 72 1012.6
20260505041538 18 35 0.0 0.0 0.00 0.00 0.00 68 1011.7
20260505041035 18 306 0.0 1.6 0.00 0.00 0.00 67 1011.7
20260505040532 18 229 0.0 0.0 0.00 0.00 0.00 67 1011.6
20260505040030 18 287 0.0 1.6 0.00 0.00 0.00 67 1011.5
20260505035525 18 307 0.0 0.0 0.00 0.00 0.00 67 1011.7
20260505035022 18 161 0.0 1.6 0.00 0.00 0.00 67 1011.6
20260505034519 18 241 0.0 0.0 0.00 0.00 0.00 67 1011.4
20260505034016 18 60 0.0 0.0 0.00 0.00 0.00 66 1011.3
20260505033513 19 304 1.6 3.2 0.00 0.00 0.00 66 1011.3
20260505033011 19 120 0.0 0.0 0.00 0.00 0.00 66 1011.3
20260505032508 19 236 0.0 0.0 0.00 0.00 0.00 65 1011.2
20260505032004 20 169 1.6 3.2 0.00 0.00 0.00 65 1011.2
20260505031501 20 43 0.0 3.2 0.00 0.00 0.00 65 1011.0
20260505030958 20 164 0.0 1.6 0.00 0.00 0.00 65 1010.9
20260505030455 20 271 1.6 4.8 0.00 0.00 0.00 64 1010.8
20260505025950 20 175 1.6 3.2 0.00 0.00 0.00 64 1010.8
20260505025447 20 297 3.2 3.2 0.00 0.00 0.00 65 1010.9
20260505024946 21 107 0.0 1.6 0.00 0.00 0.00 65 1010.8
20260505024443 21 180 1.6 3.2 0.00 0.00 0.00 64 1010.7
20260505023940 21 191 0.0 3.2 0.00 0.00 0.00 64 1010.6
20260505023437 21 275 1.6 3.2 0.00 0.00 0.00 63 1010.8
20260505022934 21 150 0.0 1.6 0.00 0.00 0.00 64 1010.7
20260505022432 21 138 1.6 3.2 0.00 0.00 0.00 63 1010.6
20260505021929 21 72 0.0 1.6 0.00 0.00 0.00 62 1010.7
20260505021425 22 260 1.6 3.2 0.00 0.00 0.00 61 1010.6
20260505020920 22 275 1.6 1.6 0.00 0.00 0.00 60 1010.7
20260505020416 22 157 0.0 3.2 0.00 0.00 0.00 60 1010.9
20260505015914 22 154 1.6 1.6 0.00 0.00 0.00 59 1010.7
20260505015411 22 266 0.0 1.6 0.00 0.00 0.00 59 1010.5
20260505014908 23 268 1.6 3.2 0.00 0.00 0.00 58 1010.6
20260505014405 24 272 4.8 6.4 0.00 0.00 0.00 55 1010.7
20260505013901 25 290 1.6 3.2 0.00 0.00 0.00 54 1010.7
20260505013358 25 301 1.6 6.4 0.00 0.00 0.00 52 1010.8
20260505012857 25 337 1.6 3.2 0.00 0.00 0.00 53 1010.8
20260505012354 25 318 1.6 3.2 0.00 0.00 0.00 53 1010.7
20260505011850 25 284 1.6 3.2 0.00 0.00 0.00 51 1010.7
20260505011347 25 258 0.0 3.2 0.00 0.00 0.00 52 1010.8
20260505010843 25 290 0.0 1.6 0.00 0.00 0.00 52 1010.8
20260505010339 24 57 1.6 3.2 0.00 0.00 0.00 54 1010.9
20260505005836 25 261 4.8 6.4 0.00 0.00 0.00 52 1011.0
20260505005332 26 253 6.4 6.4 0.00 0.00 0.00 48 1011.1
20260505004830 26 224 0.0 1.6 0.00 0.00 0.00 52 1011.2
20260505004326 25 68 1.6 3.2 0.00 0.00 0.00 51 1010.8
20260505003824 26 293 1.6 3.2 0.00 0.00 0.00 49 1011.0
20260505003321 26 159 1.6 3.2 0.00 0.00 0.00 50 1011.1
20260505002817 26 45 0.0 0.0 0.00 0.00 0.00 50 1011.0
20260505002314 26 166 3.2 3.2 0.00 0.00 0.00 51 1011.2
20260505001812 26 269 0.0 4.8 0.00 0.00 0.00 52 1011.2
20260505001309 26 300 3.2 3.2 0.00 0.00 0.00 48 1011.2
20260505000806 26 286 0.0 1.6 0.00 0.00 0.00 50 1011.1
20260505000304 25 273 0.0 1.6 0.00 0.00 0.00 54 1011.3
20260504235800 25 251 0.0 4.8 0.00 0.00 0.00 51 1011.2
20260504235256 25 246 3.2 6.4 0.00 0.00 0.00 50 1011.2
20260504234754 26 30 1.6 4.8 0.00 0.00 0.00 49 1011.2
20260504234251 25 294 3.2 4.8 0.00 0.00 0.00 51 1011.3
20260504233747 25 301 0.0 1.6 0.00 0.00 0.00 55 1011.3
20260504233243 25 286 1.6 4.8 0.00 0.00 0.00 50 1011.4
20260504232740 26 249 0.0 6.4 0.00 0.00 0.00 50 1011.5
20260504232237 26 279 1.6 3.2 0.00 0.00 0.00 49 1011.6
20260504231734 26 276 1.6 4.8 0.00 0.00 0.00 48 1011.5
20260504231231 25 189 1.6 1.6 0.00 0.00 0.00 50 1011.4
20260504230726 25 52 1.6 3.2 0.00 0.00 0.00 52 1011.6
20260504230226 26 275 4.8 6.4 0.00 0.00 0.00 48 1011.6
20260504225724 25 324 1.6 1.6 0.00 0.00 0.00 51 1011.6
20260504225220 25 265 3.2 4.8 0.00 0.00 0.00 49 1011.8
20260504224717 25 128 1.6 6.4 0.00 0.00 0.00 50 1011.9
20260504224214 25 12 1.6 4.8 0.00 0.00 0.00 51 1011.8
20260504223710 25 274 1.6 3.2 0.00 0.00 0.00 50 1011.8
20260504223206 25 280 3.2 3.2 0.00 0.00 0.00 49 1012.0
20260504222703 25 285 1.6 3.2 0.00 0.00 0.00 52 1011.9
20260504222200 25 217 0.0 3.2 0.00 0.00 0.00 51 1011.9
20260504221657 24 71 1.6 3.2 0.00 0.00 0.00 51 1012.1
20260504221155 23 140 1.6 3.2 0.00 0.00 0.00 53 1012.1
20260504220650 24 262 1.6 3.2 0.00 0.00 0.00 51 1012.3
20260504220149 23 338 1.6 1.6 0.00 0.00 0.00 54 1012.4
20260504215644 23 226 4.8 6.4 0.00 0.00 0.00 51 1012.2
20260504215142 23 50 1.6 3.2 0.00 0.00 0.00 52 1012.4
20260504214637 23 278 1.6 3.2 0.00 0.00 0.00 53 1012.5
20260504214134 23 260 0.0 3.2 0.00 0.00 0.00 53 1012.5
20260504213631 23 274 0.0 3.2 0.00 0.00 0.00 51 1012.6
20260504213127 23 197 0.0 3.2 0.00 0.00 0.00 52 1012.7
20260504212624 22 243 0.0 3.2 0.00 0.00 0.00 57 1012.6
20260504212121 22 276 1.6 4.8 0.00 0.00 0.00 54 1012.7
20260504211619 22 193 0.0 6.4 0.00 0.00 0.00 55 1012.9
20260504211115 22 250 1.6 1.6 0.00 0.00 0.00 59 1012.9
20260504210613 21 272 1.6 9.7 0.00 0.00 0.00 56 1012.9
20260504210109 21 298 3.2 3.2 0.00 0.00 0.00 57 1013.0
20260504205606 21 267 1.6 4.8 0.00 0.00 0.00 57 1013.1
20260504205104 20 257 0.0 4.8 0.00 0.00 0.00 59 1013.3
20260504204602 20 269 3.2 4.8 0.00 0.00 0.00 61 1013.2
20260504204101 20 315 3.2 4.8 0.00 0.00 0.00 61 1013.4
20260504203559 20 270 3.2 3.2 0.00 0.00 0.00 61 1013.2
20260504203056 20 282 1.6 1.6 0.00 0.00 0.00 61 1013.4
20260504202551 20 179 0.0 1.6 0.00 0.00 0.00 64 1013.4
20260504202048 20 244 3.2 3.2 0.00 0.00 0.00 60 1013.4
20260504201545 20 159 1.6 1.6 0.00 0.00 0.00 64 1013.5
20260504201043 20 263 1.6 4.8 0.00 0.00 0.00 61 1013.7
20260504200539 20 266 0.0 3.2 0.00 0.00 0.00 64 1013.6
20260504200036 19 292 4.8 6.4 0.00 0.00 0.00 62 1013.6
20260504195532 20 302 3.2 6.4 0.00 0.00 0.00 60 1013.9
20260504195029 18 169 1.6 1.6 0.00 0.00 0.00 66 1013.7
20260504194525 19 264 3.2 6.4 0.00 0.00 0.00 62 1013.7
20260504194021 18 189 1.6 12.9 0.00 0.00 0.00 67 1013.8
20260504193518 17 39 0.0 6.4 0.00 0.00 0.00 69 1013.9
20260504193017 17 295 1.6 3.2 0.00 0.00 0.00 72 1013.8
20260504192514 17 281 3.2 6.4 0.00 0.00 0.00 69 1014.1
20260504192012 16 258 0.0 4.8 0.00 0.00 0.00 71 1013.8
20260504191510 16 232 0.0 4.8 0.00 0.00 0.00 71 1013.9
20260504191006 16 267 0.0 1.6 0.00 0.00 0.00 71 1013.9
20260504190501 16 103 0.0 1.6 0.00 0.00 0.00 72 1014.1
20260504185957 16 273 1.6 3.2 0.00 0.00 0.00 73 1014.0
20260504185455 16 214 1.6 3.2 0.00 0.00 0.00 74 1014.1
20260504184951 15 291 1.6 3.2 0.00 0.00 0.00 74 1014.2
20260504184447 15 232 1.6 4.8 0.00 0.00 0.00 75 1014.2
20260504183943 15 200 0.0 4.8 0.00 0.00 0.00 76 1014.3
20260504183440 15 212 0.0 4.8 0.00 0.00 0.00 76 1014.1
20260504182938 15 269 0.0 1.6 0.00 0.00 0.00 77 1014.1
20260504182435 14 277 0.0 4.8 0.00 0.00 0.00 78 1014.1
20260504181932 14 267 3.2 9.7 0.00 0.00 0.00 77 1014.2
20260504181429 15 266 1.6 4.8 0.00 0.00 0.00 77 1014.0
20260504180928 15 261 3.2 3.2 0.00 0.00 0.00 76 1014.0
20260504180426 15 196 0.0 1.6 0.00 0.00 0.00 77 1014.1
20260504175924 15 265 0.0 6.4 0.00 0.00 0.00 77 1014.0
20260504175421 15 45 1.6 1.6 0.00 0.00 0.00 78 1014.0
20260504174919 14 217 0.0 3.2 0.00 0.00 0.00 78 1014.0
20260504174416 14 41 0.0 3.2 0.00 0.00 0.00 79 1014.1
20260504173913 13 136 1.6 4.8 0.00 0.00 0.00 79 1014.0
20260504173409 14 308 1.6 3.2 0.00 0.00 0.00 79 1014.1
20260504172907 13 99 1.6 4.8 0.00 0.00 0.00 80 1014.1
20260504172403 13 243 0.0 3.2 0.00 0.00 0.00 80 1014.1
20260504171859 13 257 1.6 1.6 0.00 0.00 0.00 81 1014.0